Victoria, British Columbia

6:28 PM PDT on July 26, 2017 (GMT -0700)
Victoria International

Weather History for CYYJ - November, 2013

Change the Weather History Date:

Tuesday, November 12, 2013

  Actual Average Record
Temperature  
Mean Temperature 50 °F -  
Max Temperature 57 °F 47 °F 61 °F (2016)
Min Temperature 44 °F 35 °F 32 °F (1997)
Degree Days  
Heating Degree Days 14    
Moisture  
Dew Point 47 °F    
Average Humidity 89    
Maximum Humidity 100    
Minimum Humidity 76    
Precipitation  
Precipitation 0.08 in 0.19 in - ()
Sea Level Pressure  
Sea Level Pressure 30.17 in    
Wind  
Wind Speed 5 mph ()    
Max Wind Speed 17 mph    
Max Gust Speed 20 mph    
Visibility 18.6 miles    
Events Rain    
Averages and records for this station are not official NWS values.
T = Trace of Precipitation, MM = Missing Value Source: Averaged Metar Reports

Daily Weather History Graph

Daily Weather History Graph

Search for Another Location

Airport or City:

Trip Planner

Search our weather history database for the weather conditions in past years. The results will help you decide how hot, cold, wet, or windy it might be!

Date:

Astronomy

Nov. 12, 2013 Rise Set
Actual Time 7:18 AM PST 4:37 PM PST
Civil Twilight 6:43 AM PST 5:11 PM PST
Nautical Twilight 6:05 AM PST 5:49 PM PST
Astronomical Twilight 5:28 AM PST 6:26 PM PST
Moon 2:15 PM PST (11/12) 1:50 AM PST (11/12)
Length of Visible Light 10h 27m
Length of Day
9h 19m
Waxing Gibbous, 77% of the Moon is Illuminated
Nov 12
Waxing Gibbous
Nov 17
Full
Nov 25
Last Quarter
Dec 2
New
Dec 9
First Quarter

Hourly Weather History & Observations

Time (PST) Temp. Windchill Dew Point Humidity Pressure Visibility Wind Dir Wind Speed Gust Speed Precip Events Conditions
12:00 AM 48.2 °F - 42.8 °F 82% 30.02 in 30.0 mi Calm Calm - N/A   Overcast
1:00 AM 46.4 °F 42.9 °F 42.8 °F 87% 30.02 in 30.0 mi WSW 6.9 mph - N/A   Overcast
2:00 AM 46.4 °F 45.2 °F 42.8 °F 87% 30.02 in 30.0 mi West 3.5 mph - N/A   Overcast
3:00 AM 46.4 °F - 42.8 °F 87% 30.02 in 30.0 mi Variable 2.3 mph - N/A   Overcast
3:17 AM 46.4 °F 45.2 °F 42.8 °F 87% 30.01 in 30.0 mi Variable 3.5 mph - N/A Rain Light Rain
4:00 AM 46 °F - 44 °F 91% 30.01 in 28 mi West 2.3 mph - - Rain Light Rain
4:00 AM 46.4 °F 45.2 °F 44.6 °F 93% 30.01 in 30.0 mi SSW 3.5 mph - N/A   Overcast
5:00 AM 48.2 °F - 44.6 °F 87% 30.03 in 30.0 mi WNW 6.9 mph - N/A   Overcast
5:07 AM 48.2 °F - 44.6 °F 87% 30.02 in 30.0 mi WNW 3.5 mph - N/A Rain Light Rain
6:00 AM 46.4 °F 45.2 °F 46.4 °F 100% 30.03 in 15.0 mi West 3.5 mph - N/A Rain Light Rain
7:00 AM 46.4 °F 43.5 °F 46.4 °F 100% 30.05 in 15.0 mi West 5.8 mph - N/A Rain Light Rain
8:00 AM 48.2 °F - 46.4 °F 93% 30.10 in 12.0 mi WSW 2.3 mph - N/A Rain Light Rain
8:43 AM 48.2 °F - 48.2 °F 100% 30.12 in 15.0 mi SSW 3.5 mph - N/A   Mostly Cloudy
9:00 AM 50.0 °F - 48.2 °F 94% 30.13 in 15.0 mi SE 3.5 mph - N/A   Mostly Cloudy
10:00 AM 53 °F - 50 °F 87% 30.17 in 19 mi SE 4.6 mph - -   Partly Cloudy
10:00 AM 53.6 °F - 50.0 °F 88% 30.17 in 20.0 mi SSE 6.9 mph - N/A   Mostly Cloudy
11:00 AM 55.4 °F - 50.0 °F 82% 30.19 in 20.0 mi SSW 12.7 mph 19.6 mph N/A   Mostly Cloudy
12:00 PM 53.6 °F - 50.0 °F 88% 30.22 in 20.0 mi SE 9.2 mph - N/A   Scattered Clouds
1:00 PM 51.8 °F - 48.2 °F 88% 30.23 in 20.0 mi ESE 12.7 mph - N/A   Mostly Cloudy
2:00 PM 53.6 °F - 48.2 °F 82% 30.23 in 20.0 mi SE 8.1 mph - N/A   Mostly Cloudy
3:00 PM 50.0 °F - 48.2 °F 94% 30.25 in 20.0 mi SE 11.5 mph - N/A   Mostly Cloudy
3:25 PM 51.8 °F - 48.2 °F 88% 30.25 in 20.0 mi SE 9.2 mph - N/A Rain Light Rain
4:00 PM 52 °F - 50 °F 89% 30.26 in 19 mi SE 5.8 mph - - Rain Light Rain
4:00 PM 51.8 °F - 50.0 °F 94% 30.25 in 20.0 mi SSE 6.9 mph - N/A   Mostly Cloudy
4:06 PM 51.8 °F - 50.0 °F 94% 30.25 in 20.0 mi SSE 6.9 mph - N/A Rain Light Rain
4:32 PM 51.8 °F - 48.2 °F 88% 30.26 in 20.0 mi South 9.2 mph - N/A   Partly Cloudy
5:29 PM 50.0 °F - 48.2 °F 94% 30.27 in 20.0 mi ENE 6.9 mph - N/A Rain Light Rain
6:00 PM 48.2 °F - 48.2 °F 100% 30.26 in 20.0 mi ENE 8.1 mph - N/A   Scattered Clouds
7:00 PM 50.0 °F - 48.2 °F 94% 30.27 in 20.0 mi SE 2.3 mph - N/A   Partly Cloudy
8:00 PM 50.0 °F - 48.2 °F 94% 30.27 in 20.0 mi NE 3.5 mph - N/A   Partly Cloudy
8:47 PM 53.6 °F - 48.2 °F 82% 30.28 in 30.0 mi SW 16.1 mph - N/A   Partly Cloudy
9:00 PM 53.6 °F - 46.4 °F 77% 30.29 in 30.0 mi SW 17.3 mph - N/A   Partly Cloudy
10:00 PM 52 °F - 47 °F 76% 30.30 in 28 mi SW 10.4 mph - -   Partly Cloudy
10:00 PM 51.8 °F - 46.4 °F 82% 30.30 in 30.0 mi SSW 11.5 mph - N/A   Partly Cloudy
11:00 PM 53.6 °F - 46.4 °F 77% 30.31 in 30.0 mi WSW 5.8 mph - N/A   Mostly Cloudy
11:18 PM 53.6 °F - 48.2 °F 82% 30.32 in 30.0 mi SSW 9.2 mph - N/A Rain Light Rain